Home   Weather   Carouge   Past weeks

Flag for Switzerland Past Weather in Carouge, Geneva, Switzerland — Yesterday and Last 2 Weeks

Now
27 °F

Chilly.


Feels Like: 27 °F
Forecast: 24 / 45 °F
Wind: 1 mph from Northwest

Location: Geneve-Cointrin

Current Time: Jan 22, 2017 at 5:51:46 pm

Latest Report: Jan 22, 2017 at 5:00 pm


Visibility: N/A

Pressure: 30.29 "Hg

Humidity: 88%

Dew Point: 24 °F

Location of CarougeLocation

Past Weather in Carouge — Graph

°F

Carouge Temperature Yesterday

Maximum temperature yesterday: 29 °F (at 3:00 pm)
Minimum temperature yesterday: 25 °F (at 7:00 am)
Average temperature yesterday: 27 °F

High & Low Weather Summary for the Past Weeks

 TemperatureHumidityPressure
High44 °F (Jan 13, 2:00 am)100% (Jan 10, 8:00 pm)30.58 "Hg (Jan 10, 8:00 pm)
Low22 °F (Jan 15, 9:00 am)53% (Jan 13, 2:00 am)29.69 "Hg (Jan 12, 11:00 pm)
Average30 °F79%30.26 "Hg
* Reported Jan 7 4:00 pm — Jan 22 4:00 pm, Carouge, Weather by CustomWeather, © 2017

Note: Actual official high and low records may vary slightly from our data, if they occured in-between our weather recording intervals... More about our weather records

Advertising

Carouge Weather History for the Previous 24 Hours

Scroll right to see more
 ConditionsComfort  
Time TempWeatherWind HumidityBarometerVisibility
4:00 pm
Sun, Jan 22
27 °FFog.3 mph90%30.29 "Hg3 mi
3:00 pm27 °FChilly.2 mph87%30.29 "HgN/A
2:00 pm27 °FChilly.7 mph86%30.29 "HgN/A
1:00 pm27 °FFog.3 mph89%30.32 "Hg3 mi
12:00 pm27 °FChilly.2 mph88%30.33 "HgN/A
11:00 am26 °FChilly.5 mph90%30.34 "HgN/A
10:00 am26 °FFog.3 mph88%30.33 "Hg3 mi
9:00 am26 °FChilly.5 mph93%30.33 "HgN/A
8:00 am26 °FChilly.5 mph92%30.32 "HgN/A
7:00 am26 °FFog.3 mph90%30.33 "Hg3 mi
6:00 am26 °FChilly.5 mph92%30.32 "HgN/A
5:00 am26 °FChilly.3 mph92%30.34 "HgN/A
4:00 am26 °FChilly.3 mph90%30.36 "HgN/A
3:00 am26 °FChilly.2 mph90%30.38 "HgN/A
2:00 am26 °FChilly.3 mph89%30.38 "HgN/A
1:00 am26 °FChilly.3 mph88%30.39 "HgN/A
12:00 am27 °FChilly.5 mph90%30.40 "HgN/A
11:00 pm
Sat, Jan 21
27 °FChilly.3 mph90%30.40 "HgN/A
10:00 pm27 °FFog.3 mph90%30.40 "Hg3 mi
9:00 pm28 °FChilly.7 mph90%30.40 "HgN/A
8:00 pm28 °FChilly.6 mph90%30.39 "HgN/A
7:00 pm28 °FFog.5 mph88%30.38 "Hg3 mi
6:00 pm28 °FChilly.3 mph86%30.38 "HgN/A
5:00 pm29 °FChilly.3 mph85%30.38 "HgN/A
Weather by CustomWeather, © 2017

See weather overviewHow to use our weather pages